ONEWEB-0142 (47288 NORAD) Tracking and Keplerian Element Data

This shows tracking and keplerian element data for the satellite.

Feedback or suggestion? Click here.




ElementValue
Catalog47288
NameONEWEB-0142
Epoch Orbit1702
Epoch Day106.25002315
Epoch Year2021
RAAN6.1042
Inclination87.9385
Eccentricity0.0001772
Argument of Perigee84.7153
Mean Anonmoly309.3994
Mean Motion13.23646529
Decay Rate-0.00011598
L11 47288U 20100AG 21106.25002315 -.00011598 00000-0 -27397-1 0 9995
L22 47288 87.9385 6.1042 0001772 84.7153 309.3994 13.23646529 17027

Live tracking and technical data element details for ONEWEB-0142 (NORAD 47288). ONEWEB-0142 can be tracked NOW for your location showing map with azimuth and elevation plus other details from your city location.

Track the satellite on the map from your city or location and see movement details for azimuth, elevation, latitude, longitude, range, height, and movement on the map or in text.







IsCatalogInMostPopularTable: catalog: 47288, numindb: 35
Update: records affected: 1



GetName: 47288 ONEWEB-0142

Hit Count: updated at: Fri, 16 Apr 2021 11:18:34 GMT